Regional Weather Roundup
Issued by NWS Sioux Falls, SD

Home | Current Version | Previous Version | Text Only | Print | Product List | Glossary On
Versions: 1 2 3 4 5 6 7 8 9 10 11 12 13 14 15 16 17 18 19 20 21 22 23 24 25 26 27 28 29 30 31 32 33 34 35 36 37 38 39 40 41 42 43 44 45 46 47 48 49 50
460
ASUS43 KFSD 060402
RWRFSD

WEATHER ROUNDUP FOR SE SOUTH DAKOTA/SW MINNESOTA/NW IOWA
NATIONAL WEATHER SERVICE SIOUX FALLS SD
1000 PM CST FRI FEB 05 2016

NOTE: "FAIR" INDICATES FEW OR NO CLOUDS BELOW 12,000 FEET WITH NO
SIGNIFICANT WEATHER AND OR OBSTRUCTIONS TO VISIBILITY.


SDZ038>040-050-052>070-060500-
SOUTHEAST SOUTH DAKOTA

CITY           SKY/WX    TMP DP  RH WIND       PRES   REMARKS
BROOKINGS      FOG       22  21  96 CALM      30.17S VSB 1/4
CHAMBERLAIN    NOT AVBL
HURON          CLEAR     26  21  81 SW7       30.18F WCI  18
MADISON        FOG       19  19 100 SW5       30.18S VSB 1/4 WCI  13
MITCHELL       CLEAR     27  25  92 SW7       30.22R WCI  19
SIOUX FALLS    CLOUDY    26  24  92 W3        30.20S FOG
WINNER         FAIR      29  21  72 SW8       30.19F WCI  21
YANKTON        CLEAR     28  25  86 W6        30.24R WCI  22
$$

MNZ071-072-080-081-089-090-097-098-060500-
SOUTHWEST MINNESOTA

CITY           SKY/WX    TMP DP  RH WIND       PRES   REMARKS
FAIRMONT       CLOUDY    27  21  80 S9        30.18F WCI  17
JACKSON        CLOUDY    28  25  86 W7        30.18S FOG     WCI  21
LUVERNE        CLEAR     23  21  93 W6        30.21R WCI  16
MARSHALL       CLEAR     20  18  92 W9        30.18F WCI   9
MONTEVIDEO     PTCLDY    25  19  80 W5        30.19S WCI  19
PIPESTONE        N/A     21  16  79 CALM      30.18R
REDWOOD FALLS  CLOUDY    27  23  85 W7        30.18S WCI  19
TRACY          MOCLDY    26  24  90 W5        30.18R WCI  20
WINDOM         CLOUDY    27  25  93 W8        30.17S FOG     WCI  18
WORTHINGTON    CLOUDY    27  23  86 W9        30.18S WCI  17
$$

IAZ001>003-012>014-020>022-031-032-NEZ013-014-SDZ071-060500-
NORTHWEST IOWA

CITY           SKY/WX    TMP DP  RH WIND       PRES   REMARKS
ESTHERVILLE    CLOUDY    26  24  92 SW9       30.19S FOG     WCI  17
SIOUX CITY     CLOUDY    31  26  82 NW7       30.24R WCI  24
SPENCER        CLOUDY    27  24  89 SW5       30.20S FOG     WCI  22
STORM LAKE     CLOUDY    28  28 100 W8        30.21R FOG     WCI  20
$$

ABBREVIATIONS USED IN REMARKS
   TC - TEMPERATURE IN CELSIUS
  WCI - WIND CHILL INDEX
   HX - HEAT INDEX
  VSB - VISIBILITY





USA.gov is the U.S. government's official web portal to all federal, state and local government web resources and services.